Location: Unspecified
(0.0000°N, 0.0000°E)
Time: 11:05:09
(UTC+00:00)

Courier 1B Rocket - Pass Details

Date: 21 November 2019
Orbit: 921 x 1202 km, 28.2° (Epoch: 14 December)

Event Time Altitude Azimuth Distance (km) Brightness Sun altitude
Rises 21:53:41 0° 299° (WNW) 4,086 - -56.0°
Reaches altitude 10° 21:56:32 10° 298° (WNW) 3,126 - -56.6°
Maximum altitude 22:04:23 83° 210° (SSW) 1,193 - -58.1°
Drops below altitude 10° 22:12:00 10° 123° (ESE) 3,034 - -59.5°
Sets 22:14:44 0° 122° (ESE) 3,960 - -60.0°
